Wappingers Falls, NY

10:58 PM EDT on September 29, 2016 (GMT -0400)
Dutchess County

Weather History for KPOU - May, 2012

Change the Weather History Date:

Monday, May 21, 2012

  Actual Average Record
Temperature  
Mean Temperature 59 °F 60 °F  
Max Temperature 67 °F 73 °F 90 °F (1975)
Min Temperature 50 °F 48 °F 29 °F (2002)
Degree Days  
Heating Degree Days 6 6  
Month to date heating degree days 98 176  
Since 1 July heating degree days 4750 6115  
Cooling Degree Days 0 1  
Month to date cooling degree days 15 15  
Year to date cooling degree days 22 20  
Growing Degree Days 8 (Base 50)    
Moisture  
Dew Point 57 °F    
Average Humidity 72    
Maximum Humidity 93    
Minimum Humidity 51    
Precipitation  
Precipitation 0.87 in 0.15 in 1.17 in (1954)
Month to date precipitation 2.86 2.82  
Year to date precipitation 9.72 15.91  
Sea Level Pressure  
Sea Level Pressure 30.11 in    
Wind  
Wind Speed 2 mph (NNE)    
Max Wind Speed 9 mph    
Max Gust Speed 17 mph    
Visibility 7 miles    
Events Rain    
T = Trace of Precipitation, MM = Missing Value Source: NWS Daily Summary

Daily Weather History Graph

Daily Weather History Graph

Search for Another Location

Airport or City:

Trip Planner

Search our weather history database for the weather conditions in past years. The results will help you decide how hot, cold, wet, or windy it might be!

Date:

Astronomy

May. 21, 2012 Rise Set
Actual Time 5:30 AM EDT 8:14 PM EDT
Civil Twilight 4:57 AM EDT 8:46 PM EDT
Nautical Twilight 4:17 AM EDT 9:27 PM EDT
Astronomical Twilight 3:31 AM EDT 10:14 PM EDT
Moon 5:51 AM EDT (5/21) 9:03 PM EDT (5/21)
Length of Visible Light 15h 49m
Length of Day
14h 44m
New Moon, 0% of the Moon is Illuminated
May 21
New Moon
May 28
First Quarter
Jun 4
Full
Jun 11
Last Quarter
Jun 19
New

Hourly Weather History & Observations

Time (EDT) Temp. Dew Point Humidity Pressure Visibility Wind Dir Wind Speed Gust Speed Precip Events Conditions
12:53 AM 52.0 °F 39.9 °F 63% 30.22 in 10.0 mi Calm Calm - N/A   Mostly Cloudy
1:53 AM 51.1 °F 42.1 °F 71% 30.20 in 10.0 mi Calm Calm - N/A   Clear
2:11 AM 51.8 °F 39.2 °F 62% 30.21 in 10.0 mi Calm Calm - N/A   Mostly Cloudy
2:53 AM 55.0 °F 41.0 °F 59% 30.20 in 10.0 mi Calm Calm - N/A   Overcast
3:53 AM 57.0 °F 39.9 °F 53% 30.19 in 10.0 mi Calm Calm - N/A   Overcast
4:53 AM 57.0 °F 43.0 °F 59% 30.18 in 10.0 mi Calm Calm - N/A   Overcast
5:16 AM 55.4 °F 42.8 °F 63% 30.19 in 10.0 mi Calm Calm - N/A   Mostly Cloudy
5:26 AM 55.4 °F 42.8 °F 63% 30.19 in 10.0 mi NNE 3.5 mph - N/A   Mostly Cloudy
5:53 AM 57.9 °F 43.0 °F 58% 30.19 in 10.0 mi Calm Calm - N/A   Overcast
6:53 AM 59.0 °F 44.1 °F 58% 30.19 in 10.0 mi NNE 3.5 mph - N/A   Overcast
7:53 AM 62.1 °F 46.0 °F 56% 30.19 in 10.0 mi North 4.6 mph - N/A   Overcast
8:53 AM 64.0 °F 51.1 °F 63% 30.19 in 10.0 mi North 4.6 mph - N/A   Overcast
9:53 AM 66.0 °F 55.0 °F 68% 30.17 in 10.0 mi NE 4.6 mph - N/A   Overcast
10:53 AM 66.0 °F 55.9 °F 70% 30.16 in 10.0 mi ENE 4.6 mph - N/A   Overcast
11:53 AM 66.0 °F 57.9 °F 75% 30.16 in 10.0 mi SE 6.9 mph - N/A   Overcast
12:26 PM 64.4 °F 59.0 °F 83% 30.16 in 2.0 mi SE 4.6 mph - 0.05 in Rain Heavy Rain
12:40 PM 62.6 °F 60.8 °F 94% 30.15 in 2.0 mi Calm Calm - 0.11 in Rain Rain
12:53 PM 63.0 °F 60.1 °F 90% 30.14 in 2.0 mi East 4.6 mph - 0.16 in Rain Rain
12:56 PM 62.6 °F 60.8 °F 94% 30.14 in 1.8 mi East 5.8 mph - 0.01 in Rain Heavy Rain
1:12 PM 62.6 °F 60.8 °F 94% 30.14 in 3.0 mi East 4.6 mph - 0.10 in Rain Rain
1:20 PM 62.6 °F 60.8 °F 94% 30.14 in 2.5 mi Calm Calm - 0.13 in Rain Rain
1:28 PM 62.6 °F 60.8 °F 94% 30.14 in 1.2 mi Calm Calm - 0.17 in Rain Rain
1:36 PM 62.6 °F 60.8 °F 94% 30.14 in 3.0 mi SSW 3.5 mph - 0.21 in Rain Light Rain
1:53 PM 64.0 °F 61.0 °F 90% 30.13 in 6.0 mi East 3.5 mph - 0.23 in Rain Light Rain
2:27 PM 64.4 °F 60.8 °F 88% 30.13 in 10.0 mi Calm Calm - 0.00 in Rain Light Rain
2:53 PM 64.9 °F 61.0 °F 87% 30.11 in 8.0 mi Calm Calm - 0.03 in Rain Light Rain
3:16 PM 64.4 °F 60.8 °F 88% 30.11 in 1.8 mi ENE 4.6 mph - 0.03 in Rain Heavy Rain
3:24 PM 64.4 °F 60.8 °F 88% 30.10 in 2.5 mi NE 4.6 mph - 0.08 in Rain Rain
3:33 PM 64.4 °F 62.6 °F 94% 30.10 in 5.0 mi NNE 4.6 mph - 0.10 in Rain Light Rain
3:46 PM 64.4 °F 60.8 °F 88% 30.09 in 5.0 mi NE 4.6 mph - 0.10 in Rain Light Rain
3:53 PM 64.0 °F 61.0 °F 90% 30.08 in 7.0 mi NNE 4.6 mph - 0.10 in Rain Light Rain
4:07 PM 64.4 °F 62.6 °F 94% 30.09 in 9.0 mi North 3.5 mph - 0.01 in Rain Light Rain
4:34 PM 64.4 °F 62.6 °F 94% 30.08 in 10.0 mi North 3.5 mph - 0.01 in   Overcast
4:53 PM 64.9 °F 62.1 °F 90% 30.07 in 10.0 mi North 3.5 mph - 0.01 in Rain Light Rain
5:08 PM 64.4 °F 62.6 °F 94% 30.07 in 10.0 mi North 3.5 mph - 0.00 in Rain Light Rain
5:18 PM 64.4 °F 62.6 °F 94% 30.07 in 10.0 mi Calm Calm - 0.00 in   Overcast
5:43 PM 64.4 °F 62.6 °F 94% 30.07 in 10.0 mi Calm Calm - 0.00 in   Overcast
5:47 PM 64.4 °F 62.6 °F 94% 30.06 in 10.0 mi Calm Calm - 0.00 in   Overcast
5:53 PM 64.9 °F 62.1 °F 90% 30.06 in 10.0 mi Calm Calm - 0.00 in   Overcast
6:04 PM 64.4 °F 62.6 °F 94% 30.06 in 10.0 mi NNW 3.5 mph - 0.00 in Rain Light Rain
6:12 PM 64.4 °F 62.6 °F 94% 30.06 in 3.0 mi NNW 3.5 mph - 0.01 in Rain Rain
6:15 PM 64.4 °F 62.6 °F 94% 30.06 in 1.8 mi NNW 3.5 mph - 0.03 in Rain Rain
6:24 PM 64.4 °F 62.6 °F 94% 30.06 in 3.0 mi NW 3.5 mph - 0.04 in Rain Light Rain
6:53 PM 64.0 °F 62.1 °F 93% 30.04 in 6.0 mi North 3.5 mph - 0.04 in   Overcast
7:22 PM 64.4 °F 62.6 °F 94% 30.05 in 8.0 mi Calm Calm - N/A   Overcast
7:42 PM 64.4 °F 62.6 °F 94% 30.04 in 2.5 mi Calm Calm - 0.01 in Rain Light Rain
7:53 PM 64.0 °F 62.1 °F 93% 30.03 in 1.5 mi North 3.5 mph - 0.02 in Rain Light Rain
8:07 PM 62.6 °F 62.6 °F 100% 30.03 in 3.0 mi Calm Calm - 0.01 in Rain Light Rain
8:44 PM 64.4 °F 62.6 °F 94% 30.03 in 10.0 mi Calm Calm - 0.01 in   Overcast
8:53 PM 63.0 °F 62.1 °F 97% 30.02 in 10.0 mi Calm Calm - 0.01 in   Overcast
9:34 PM 64.4 °F 62.6 °F 94% 30.03 in 10.0 mi Calm Calm - 0.00 in Rain Light Rain
9:53 PM 64.0 °F 62.1 °F 93% 30.02 in 10.0 mi Calm Calm - 0.00 in   Overcast
10:08 PM 62.6 °F 60.8 °F 94% 30.03 in 10.0 mi Calm Calm - 0.00 in Rain Light Rain
10:26 PM 62.6 °F 62.6 °F 100% 30.03 in 10.0 mi Calm Calm - 0.00 in Rain Light Rain
10:53 PM 63.0 °F 61.0 °F 93% 30.01 in 10.0 mi Calm Calm - 0.01 in Rain Light Rain
11:32 PM 64.4 °F 60.8 °F 88% 30.01 in 9.0 mi Calm Calm - 0.01 in Rain Light Rain
11:53 PM 63.0 °F 61.0 °F 93% 29.99 in 7.0 mi Calm Calm - 0.02 in Rain Light Rain